CDAKE CYQK-CYWG

Flight info

Callsign CDAKE
Flight time 1h 9m
Altitude 8000
Route EMIVA NORAK5
Aircraft SR22/L-V/N

Departure

Time 2026-04-22 03:12
Airport Kenora Airport (CYQK)

Arrival

Time 2026-04-22 04:21
Airport Winnipeg / James Armstrong Richardson International Airport (CYWG)
Time Latitude Longitude Altitude Speed Heading
2026-04-22 02:55 49.79125 -94.36443 1348 ft 0 kts 307°
2026-04-22 03:07 49.79125 -94.36460 1343 ft 4 kts 240°
2026-04-22 03:07 49.79095 -94.36435 1344 ft 9 kts 134°
2026-04-22 03:07 49.79029 -94.36396 1343 ft 13 kts 208°
2026-04-22 03:07 49.78959 -94.36478 1347 ft 13 kts 207°
2026-04-22 03:08 49.78896 -94.36474 1344 ft 0 kts 167°
2026-04-22 03:09 49.78867 -94.36464 1343 ft 14 kts 174°
2026-04-22 03:10 49.78799 -94.36614 1343 ft 26 kts 259°
2026-04-22 03:10 49.78760 -94.36895 1339 ft 31 kts 258°
2026-04-22 03:10 49.78714 -94.37213 1344 ft 29 kts 258°
2026-04-22 03:10 49.78668 -94.37379 1344 ft 9 kts 351°
2026-04-22 03:11 49.78693 -94.37292 1345 ft 18 kts 77°
2026-04-22 03:11 49.78773 -94.36738 1340 ft 82 kts 77°
2026-04-22 03:11 49.78917 -94.35746 1482 ft 97 kts 78°
2026-04-22 03:11 49.79093 -94.34739 1737 ft 98 kts 76°
2026-04-22 03:12 49.79311 -94.33733 2016 ft 101 kts 73°
2026-04-22 03:12 49.79742 -94.31596 2509 ft 107 kts 78°
2026-04-22 03:12 49.79955 -94.30478 2765 ft 109 kts 77°
2026-04-22 03:13 49.80193 -94.29347 3017 ft 111 kts 75°
2026-04-22 03:13 49.80458 -94.28209 3268 ft 113 kts 72°
2026-04-22 03:13 49.80745 -94.27059 3525 ft 119 kts 71°
2026-04-22 03:13 49.81070 -94.25825 3795 ft 128 kts 70°
2026-04-22 03:14 49.81513 -94.24652 4055 ft 137 kts 40°
2026-04-22 03:14 49.82424 -94.24295 4336 ft 142 kts 353°
2026-04-22 03:14 49.83276 -94.24995 4618 ft 142 kts 307°
2026-04-22 03:14 49.83575 -94.26395 4896 ft 139 kts 263°
2026-04-22 03:15 49.83392 -94.27860 5162 ft 139 kts 256°
2026-04-22 03:15 49.83207 -94.29344 5423 ft 140 kts 257°
2026-04-22 03:15 49.83018 -94.30833 5685 ft 141 kts 257°
2026-04-22 03:15 49.82827 -94.32330 5953 ft 142 kts 258°
2026-04-22 03:16 49.82636 -94.33831 6206 ft 142 kts 259°
2026-04-22 03:16 49.82715 -94.35352 6457 ft 143 kts 278°
2026-04-22 03:16 49.82663 -94.36848 6699 ft 141 kts 259°
2026-04-22 03:16 49.82477 -94.38343 6945 ft 141 kts 259°
2026-04-22 03:17 49.82281 -94.39830 7193 ft 141 kts 259°
2026-04-22 03:17 49.82083 -94.41310 7442 ft 140 kts 259°
2026-04-22 03:17 49.81883 -94.42785 7690 ft 138 kts 260°
2026-04-22 03:17 49.81694 -94.44202 7929 ft 131 kts 260°
2026-04-22 03:18 49.81503 -94.45614 7988 ft 139 kts 261°
2026-04-22 03:18 49.81300 -94.47115 7996 ft 145 kts 260°
2026-04-22 03:18 49.81087 -94.48668 8001 ft 150 kts 260°
2026-04-22 03:18 49.80869 -94.50260 7998 ft 152 kts 260°
2026-04-22 03:19 49.80652 -94.51849 8003 ft 153 kts 260°
2026-04-22 03:19 49.80427 -94.53491 8003 ft 154 kts 260°
2026-04-22 03:19 49.80201 -94.55123 8002 ft 155 kts 260°
2026-04-22 03:19 49.79980 -94.56742 8005 ft 155 kts 260°
2026-04-22 03:20 49.79754 -94.58379 8006 ft 156 kts 260°
2026-04-22 03:20 49.79529 -94.60021 8006 ft 156 kts 260°
2026-04-22 03:20 49.79304 -94.61658 8007 ft 156 kts 260°
2026-04-22 03:20 49.79078 -94.63297 8010 ft 156 kts 260°
2026-04-22 03:21 49.78852 -94.64935 8010 ft 156 kts 260°
2026-04-22 03:21 49.78625 -94.66576 8013 ft 156 kts 260°
2026-04-22 03:21 49.78398 -94.68226 8009 ft 156 kts 260°
2026-04-22 03:21 49.78171 -94.69862 8009 ft 155 kts 260°
2026-04-22 03:22 49.77945 -94.71498 8010 ft 155 kts 260°
2026-04-22 03:22 49.77718 -94.73133 8012 ft 155 kts 260°
2026-04-22 03:22 49.77495 -94.74746 8010 ft 155 kts 259°
2026-04-22 03:22 49.77267 -94.76376 8012 ft 155 kts 259°
2026-04-22 03:23 49.77042 -94.78004 8013 ft 155 kts 260°
2026-04-22 03:23 49.76814 -94.79635 8013 ft 155 kts 260°
2026-04-22 03:23 49.76583 -94.81279 8016 ft 158 kts 259°
2026-04-22 03:23 49.76349 -94.82952 8019 ft 160 kts 259°
2026-04-22 03:24 49.76113 -94.84645 8019 ft 161 kts 259°
2026-04-22 03:24 49.75876 -94.86344 8021 ft 162 kts 259°
2026-04-22 03:24 49.75637 -94.88052 8023 ft 162 kts 259°
2026-04-22 03:24 49.75397 -94.89761 8017 ft 163 kts 259°
2026-04-22 03:25 49.75158 -94.91467 8019 ft 162 kts 259°
2026-04-22 03:25 49.75077 -94.93188 8071 ft 159 kts 272°
2026-04-22 03:25 49.75085 -94.94890 8105 ft 159 kts 270°
2026-04-22 03:25 49.75077 -94.96585 8104 ft 160 kts 270°
2026-04-22 03:26 49.75073 -94.98308 8106 ft 160 kts 270°
2026-04-22 03:26 49.75072 -95.00021 8106 ft 158 kts 270°
2026-04-22 03:26 49.75069 -95.01716 8104 ft 157 kts 270°
2026-04-22 03:26 49.75066 -95.03404 8105 ft 157 kts 270°
2026-04-22 03:27 49.75062 -95.05088 8104 ft 156 kts 270°
2026-04-22 03:27 49.75058 -95.06767 8105 ft 156 kts 270°
2026-04-22 03:27 49.75054 -95.08445 8102 ft 156 kts 270°
2026-04-22 03:27 49.75050 -95.10419 8101 ft 156 kts 270°
2026-04-22 03:28 49.75043 -95.12754 8104 ft 156 kts 270°
2026-04-22 03:28 49.75038 -95.14943 8103 ft 156 kts 270°
2026-04-22 03:28 49.75034 -95.16620 8102 ft 156 kts 270°
2026-04-22 03:28 49.75029 -95.18296 8102 ft 156 kts 270°
2026-04-22 03:29 49.75023 -95.19975 8101 ft 156 kts 270°
2026-04-22 03:29 49.75019 -95.21650 8099 ft 156 kts 270°
2026-04-22 03:29 49.75012 -95.23328 8102 ft 156 kts 270°
2026-04-22 03:29 49.75007 -95.25003 8101 ft 156 kts 269°
2026-04-22 03:30 49.75000 -95.26682 8098 ft 156 kts 270°
2026-04-22 03:30 49.74994 -95.28354 8097 ft 156 kts 269°
2026-04-22 03:30 49.74987 -95.30034 8099 ft 156 kts 270°
2026-04-22 03:30 49.74980 -95.31689 8099 ft 156 kts 269°
2026-04-22 03:31 49.74973 -95.33363 8097 ft 156 kts 269°
2026-04-22 03:31 49.74965 -95.35041 8092 ft 156 kts 269°
2026-04-22 03:31 49.74948 -95.38228 8096 ft 155 kts 269°
2026-04-22 03:31 49.74929 -95.42325 8093 ft 155 kts 269°
2026-04-22 03:32 49.74922 -95.43998 8093 ft 155 kts 269°
2026-04-22 03:32 49.74913 -95.45668 8093 ft 155 kts 269°
2026-04-22 03:32 49.74903 -95.47336 8091 ft 155 kts 269°
2026-04-22 03:32 49.74894 -95.49004 8092 ft 155 kts 269°
2026-04-22 03:33 49.74884 -95.50673 8091 ft 155 kts 269°
2026-04-22 03:33 49.74874 -95.52340 8085 ft 155 kts 269°
2026-04-22 03:33 49.74864 -95.54010 8090 ft 155 kts 269°
2026-04-22 03:33 49.74854 -95.55679 8089 ft 155 kts 269°
2026-04-22 03:34 49.74843 -95.57323 8093 ft 155 kts 269°
2026-04-22 03:34 49.74833 -95.58992 8091 ft 155 kts 269°
2026-04-22 03:34 49.74821 -95.60659 8086 ft 155 kts 269°
2026-04-22 03:34 49.74810 -95.62329 8086 ft 155 kts 269°
2026-04-22 03:35 49.74798 -95.63994 8088 ft 155 kts 269°
2026-04-22 03:35 49.74787 -95.65662 8093 ft 155 kts 269°
2026-04-22 03:35 49.74774 -95.67355 8097 ft 158 kts 269°
2026-04-22 03:35 49.74763 -95.69059 8090 ft 158 kts 269°
2026-04-22 03:36 49.74748 -95.70761 8087 ft 158 kts 270°
2026-04-22 03:36 49.74736 -95.72434 8088 ft 158 kts 269°
2026-04-22 03:36 49.74723 -95.74127 8088 ft 157 kts 269°
2026-04-22 03:36 49.74708 -95.75818 8083 ft 157 kts 270°
2026-04-22 03:37 49.74699 -95.77504 8082 ft 157 kts 270°
2026-04-22 03:37 49.74685 -95.79194 8081 ft 157 kts 269°
2026-04-22 03:37 49.74666 -95.80887 8082 ft 158 kts 270°
2026-04-22 03:37 49.74652 -95.82578 8079 ft 157 kts 270°
2026-04-22 03:38 49.74639 -95.84267 8079 ft 157 kts 270°
2026-04-22 03:38 49.74623 -95.85949 8078 ft 156 kts 270°
2026-04-22 03:38 49.74609 -95.87631 8075 ft 156 kts 270°
2026-04-22 03:38 49.74586 -95.89311 8074 ft 156 kts 270°
2026-04-22 03:39 49.74578 -95.91000 8072 ft 157 kts 270°
2026-04-22 03:39 49.74564 -95.92681 8073 ft 156 kts 270°
2026-04-22 03:39 49.74548 -95.94360 8071 ft 156 kts 270°
2026-04-22 03:39 49.74531 -95.96041 8069 ft 156 kts 270°
2026-04-22 03:40 49.74514 -95.97720 8069 ft 156 kts 270°
2026-04-22 03:40 49.74497 -95.99402 8067 ft 156 kts 270°
2026-04-22 03:40 49.74480 -96.01085 8069 ft 157 kts 270°
2026-04-22 03:40 49.74463 -96.02749 8065 ft 156 kts 270°
2026-04-22 03:41 49.74446 -96.04429 8065 ft 156 kts 270°
2026-04-22 03:41 49.74427 -96.06110 8067 ft 156 kts 270°
2026-04-22 03:41 49.74410 -96.07796 8064 ft 157 kts 270°
2026-04-22 03:41 49.74390 -96.09482 8066 ft 157 kts 270°
2026-04-22 03:42 49.74373 -96.11171 8056 ft 157 kts 270°
2026-04-22 03:42 49.74354 -96.12864 8056 ft 157 kts 270°
2026-04-22 03:42 49.74335 -96.14554 8055 ft 157 kts 270°
2026-04-22 03:42 49.74322 -96.15673 8056 ft 157 kts 270°
2026-04-22 03:43 49.74302 -96.17366 8054 ft 157 kts 270°
2026-04-22 03:43 49.74283 -96.19058 8045 ft 157 kts 270°
2026-04-22 03:43 49.74262 -96.20748 8044 ft 157 kts 270°
2026-04-22 03:43 49.74222 -96.24002 8039 ft 157 kts 270°
2026-04-22 03:44 49.74203 -96.25695 8038 ft 157 kts 270°
2026-04-22 03:44 49.74182 -96.27389 8036 ft 157 kts 270°
2026-04-22 03:44 49.74161 -96.29081 8038 ft 157 kts 270°
2026-04-22 03:44 49.74139 -96.30773 8030 ft 157 kts 270°
2026-04-22 03:45 49.74117 -96.32463 8024 ft 157 kts 270°
2026-04-22 03:45 49.74096 -96.34156 8019 ft 158 kts 270°
2026-04-22 03:45 49.74073 -96.35850 8021 ft 157 kts 270°
2026-04-22 03:45 49.74051 -96.37521 8018 ft 157 kts 270°
2026-04-22 03:46 49.74029 -96.39212 8014 ft 157 kts 270°
2026-04-22 03:46 49.74005 -96.40909 8006 ft 158 kts 270°
2026-04-22 03:46 49.73982 -96.42603 8002 ft 158 kts 270°
2026-04-22 03:46 49.73959 -96.44301 8001 ft 158 kts 270°
2026-04-22 03:47 49.73935 -96.45997 7998 ft 158 kts 270°
2026-04-22 03:47 49.73911 -96.47696 7996 ft 158 kts 270°
2026-04-22 03:47 49.73886 -96.49395 7988 ft 158 kts 270°
2026-04-22 03:47 49.73867 -96.51094 7984 ft 158 kts 271°
2026-04-22 03:48 49.73970 -96.52778 7974 ft 157 kts 284°
2026-04-22 03:48 49.74360 -96.54357 7964 ft 157 kts 292°
2026-04-22 03:48 49.74779 -96.55919 8021 ft 156 kts 291°
2026-04-22 03:48 49.75189 -96.57462 8031 ft 156 kts 291°
2026-04-22 03:49 49.75599 -96.58995 8035 ft 156 kts 291°
2026-04-22 03:49 49.76017 -96.60550 8030 ft 157 kts 291°
2026-04-22 03:49 49.76436 -96.62108 8035 ft 157 kts 291°
2026-04-22 03:49 49.76824 -96.63559 8031 ft 157 kts 291°
2026-04-22 03:50 49.77233 -96.65083 8030 ft 157 kts 291°
2026-04-22 03:50 49.77651 -96.66642 8032 ft 157 kts 291°
2026-04-22 03:50 49.78070 -96.68201 8028 ft 157 kts 291°
2026-04-22 03:50 49.78485 -96.69758 8026 ft 157 kts 291°
2026-04-22 03:51 49.78903 -96.71319 8026 ft 157 kts 291°
2026-04-22 03:51 49.79319 -96.72879 8024 ft 157 kts 291°
2026-04-22 03:51 49.79735 -96.74440 8020 ft 157 kts 291°
2026-04-22 03:51 49.80152 -96.76000 8019 ft 157 kts 291°
2026-04-22 03:52 49.80568 -96.77562 8016 ft 157 kts 291°
2026-04-22 03:52 49.80979 -96.79108 8014 ft 157 kts 291°
2026-04-22 03:52 49.81395 -96.80668 8015 ft 157 kts 291°
2026-04-22 03:52 49.81810 -96.82231 8013 ft 157 kts 291°
2026-04-22 03:53 49.82226 -96.83793 8013 ft 157 kts 291°
2026-04-22 03:53 49.82640 -96.85358 8013 ft 157 kts 291°
2026-04-22 03:53 49.83056 -96.86920 8011 ft 157 kts 291°
2026-04-22 03:53 49.83472 -96.88488 8010 ft 157 kts 291°
2026-04-22 03:54 49.83886 -96.90054 8007 ft 157 kts 291°
2026-04-22 03:54 49.84302 -96.91620 8006 ft 157 kts 291°
2026-04-22 03:54 49.84716 -96.93187 8004 ft 157 kts 291°
2026-04-22 03:54 49.85133 -96.94759 8001 ft 157 kts 291°
2026-04-22 03:55 49.85548 -96.96332 8000 ft 157 kts 291°
2026-04-22 03:55 49.85958 -96.97854 7992 ft 149 kts 291°
2026-04-22 03:55 49.86344 -96.99317 7942 ft 146 kts 291°
2026-04-22 03:55 49.86736 -97.00808 7740 ft 152 kts 291°
2026-04-22 03:56 49.87230 -97.02275 7542 ft 157 kts 304°
2026-04-22 03:56 49.87998 -97.03470 7349 ft 160 kts 315°
2026-04-22 03:56 49.88837 -97.04608 7158 ft 160 kts 314°
2026-04-22 03:56 49.89668 -97.05757 6969 ft 160 kts 314°
2026-04-22 03:57 49.90502 -97.06912 6775 ft 161 kts 314°
2026-04-22 03:57 49.91338 -97.08063 6585 ft 161 kts 314°
2026-04-22 03:57 49.92179 -97.09222 6395 ft 161 kts 314°
2026-04-22 03:57 49.93021 -97.10378 6202 ft 161 kts 314°
2026-04-22 03:58 49.93864 -97.11530 5999 ft 162 kts 313°
2026-04-22 03:58 49.94699 -97.12670 5801 ft 162 kts 313°
2026-04-22 03:58 49.95543 -97.13827 5601 ft 162 kts 312°
2026-04-22 03:58 49.96384 -97.14976 5501 ft 157 kts 311°
2026-04-22 03:59 49.97186 -97.16073 5490 ft 150 kts 311°
2026-04-22 03:59 49.97957 -97.17132 5490 ft 146 kts 310°
2026-04-22 03:59 49.98773 -97.18044 5488 ft 150 kts 333°
2026-04-22 03:59 49.99847 -97.17887 5491 ft 165 kts 16°
2026-04-22 04:00 50.00889 -97.17136 5491 ft 164 kts 17°
2026-04-22 04:00 50.01927 -97.16399 5497 ft 164 kts 17°
2026-04-22 04:00 50.02964 -97.15662 5494 ft 163 kts 17°
2026-04-22 04:00 50.03984 -97.14933 5495 ft 163 kts 17°
2026-04-22 04:01 50.05015 -97.14192 5495 ft 163 kts 17°
2026-04-22 04:01 50.06045 -97.13447 5495 ft 163 kts 17°
2026-04-22 04:01 50.07075 -97.12707 5495 ft 163 kts 17°
2026-04-22 04:01 50.08119 -97.12057 5478 ft 157 kts
2026-04-22 04:02 50.09073 -97.12490 5440 ft 138 kts 307°
2026-04-22 04:02 50.09314 -97.13787 5425 ft 127 kts 254°
2026-04-22 04:02 50.08810 -97.14904 5421 ft 128 kts 232°
2026-04-22 04:02 50.08226 -97.15942 5422 ft 127 kts 233°
2026-04-22 04:03 50.07644 -97.16983 5417 ft 127 kts 232°
2026-04-22 04:03 50.07024 -97.17951 5325 ft 129 kts 226°
2026-04-22 04:03 50.06322 -97.18870 5137 ft 133 kts 222°
2026-04-22 04:03 50.05552 -97.19714 4865 ft 139 kts 216°
2026-04-22 04:04 50.04653 -97.20324 4598 ft 143 kts 201°
2026-04-22 04:04 50.03736 -97.20607 4477 ft 128 kts 194°
2026-04-22 04:04 50.02863 -97.20774 4274 ft 128 kts 193°
2026-04-22 04:04 50.01975 -97.20794 4051 ft 135 kts 171°
2026-04-22 04:05 50.01140 -97.20073 3929 ft 135 kts 153°
2026-04-22 04:05 50.00404 -97.19193 3787 ft 134 kts 149°
2026-04-22 04:05 49.99709 -97.18215 3624 ft 136 kts 140°
2026-04-22 04:05 49.99239 -97.16882 3467 ft 144 kts 118°
2026-04-22 04:06 49.99129 -97.15308 3293 ft 154 kts 92°
2026-04-22 04:06 49.99509 -97.13709 3117 ft 163 kts 62°
2026-04-22 04:06 50.00101 -97.12270 3074 ft 149 kts 76°
2026-04-22 04:06 50.00461 -97.10829 3071 ft 142 kts 66°
2026-04-22 04:07 50.01043 -97.09609 3072 ft 139 kts 60°
2026-04-22 04:07 50.01847 -97.08787 3070 ft 145 kts
2026-04-22 04:07 50.02851 -97.08687 3080 ft 145 kts
2026-04-22 04:07 50.03853 -97.08558 3075 ft 144 kts
2026-04-22 04:08 50.04852 -97.08436 3081 ft 144 kts
2026-04-22 04:08 50.05853 -97.08305 3077 ft 144 kts
2026-04-22 04:08 50.06849 -97.08175 3080 ft 142 kts
2026-04-22 04:08 50.07817 -97.08051 3076 ft 136 kts
2026-04-22 04:09 50.08732 -97.07919 3080 ft 129 kts
2026-04-22 04:09 50.09620 -97.07802 3081 ft 130 kts
2026-04-22 04:09 50.10531 -97.07691 3082 ft 131 kts
2026-04-22 04:09 50.11448 -97.07597 3085 ft 132 kts 352°
2026-04-22 04:10 50.12138 -97.08300 3079 ft 114 kts 280°
2026-04-22 04:10 50.12050 -97.09365 3098 ft 97 kts 240°
2026-04-22 04:10 50.11839 -97.10384 3095 ft 100 kts 243°
2026-04-22 04:10 50.11630 -97.11419 3093 ft 101 kts 243°
2026-04-22 04:11 50.11414 -97.12455 3094 ft 100 kts 243°
2026-04-22 04:11 50.11201 -97.13489 3098 ft 100 kts 243°
2026-04-22 04:11 50.10974 -97.14523 3093 ft 101 kts 242°
2026-04-22 04:11 50.10715 -97.15518 3097 ft 97 kts 230°
2026-04-22 04:12 50.10313 -97.16347 3099 ft 96 kts 227°
2026-04-22 04:12 50.09926 -97.17171 3093 ft 95 kts 228°
2026-04-22 04:12 50.09533 -97.18004 3099 ft 93 kts 227°
2026-04-22 04:12 50.09169 -97.18807 3079 ft 88 kts 227°
2026-04-22 04:13 50.08764 -97.19460 3067 ft 80 kts 203°
2026-04-22 04:13 50.08227 -97.19527 3069 ft 77 kts 182°
2026-04-22 04:13 50.07711 -97.19646 3070 ft 75 kts 192°
2026-04-22 04:13 50.07198 -97.19845 3066 ft 76 kts 199°
2026-04-22 04:14 50.06700 -97.20121 3070 ft 77 kts 196°
2026-04-22 04:14 50.06175 -97.20276 3074 ft 77 kts 191°
2026-04-22 04:14 50.05648 -97.20388 3073 ft 77 kts 188°
2026-04-22 04:14 50.05119 -97.20485 3071 ft 77 kts 188°
2026-04-22 04:15 50.04587 -97.20582 3069 ft 77 kts 188°
2026-04-22 04:15 50.04060 -97.20707 3033 ft 78 kts 192°
2026-04-22 04:15 50.03522 -97.20859 2988 ft 79 kts 190°
2026-04-22 04:15 50.02977 -97.21005 2957 ft 79 kts 191°
2026-04-22 04:16 50.02434 -97.21149 2918 ft 80 kts 188°
2026-04-22 04:16 50.01296 -97.21399 2771 ft 86 kts 191°
2026-04-22 04:16 50.00678 -97.21562 2629 ft 93 kts 190°
2026-04-22 04:17 50.00031 -97.21773 2495 ft 93 kts 192°
2026-04-22 04:17 49.99459 -97.21939 2314 ft 75 kts 187°
2026-04-22 04:17 49.98957 -97.22014 2223 ft 72 kts 184°
2026-04-22 04:17 49.98457 -97.22128 2118 ft 72 kts 186°
2026-04-22 04:18 49.97978 -97.22260 2031 ft 69 kts 185°
2026-04-22 04:18 49.97510 -97.22380 1913 ft 69 kts 185°
2026-04-22 04:18 49.97039 -97.22510 1781 ft 71 kts 186°
2026-04-22 04:18 49.96539 -97.22615 1670 ft 73 kts 181°
2026-04-22 04:19 49.96064 -97.22700 1576 ft 74 kts 184°
2026-04-22 04:19 49.95611 -97.22788 1485 ft 75 kts 182°
2026-04-22 04:19 49.95070 -97.22918 1386 ft 81 kts 187°
2026-04-22 04:19 49.94531 -97.23034 1304 ft 77 kts 181°
2026-04-22 04:20 49.93987 -97.23163 1180 ft 81 kts 183°
2026-04-22 04:20 49.93438 -97.23302 1079 ft 79 kts 181°
2026-04-22 04:20 49.92900 -97.23412 952 ft 77 kts 184°
2026-04-22 04:20 49.92387 -97.23532 816 ft 74 kts 182°
2026-04-22 04:21 49.91935 -97.23639 786 ft 54 kts 181°
2026-04-22 04:21 49.91623 -97.23695 783 ft 39 kts 190°
2026-04-22 04:21 49.91387 -97.23752 782 ft 31 kts 188°
2026-04-22 04:21 49.91237 -97.23867 782 ft 18 kts 240°
2026-04-22 04:22 49.91231 -97.23886 782 ft 0 kts 243°
2026-04-22 04:22 49.91225 -97.23902 782 ft 5 kts 237°
2026-04-22 04:22 49.91179 -97.23960 781 ft 11 kts 223°
2026-04-22 04:23 49.91078 -97.24097 781 ft 20 kts 223°
2026-04-22 04:23 49.90976 -97.24239 781 ft 19 kts 223°
2026-04-22 04:23 49.90869 -97.24390 782 ft 20 kts 224°
2026-04-22 04:23 49.90767 -97.24477 784 ft 16 kts 169°
2026-04-22 04:24 49.90672 -97.24483 783 ft 15 kts 207°
2026-04-22 04:24 49.90613 -97.24630 781 ft 19 kts 258°
2026-04-22 04:24 49.90585 -97.24844 781 ft 22 kts 257°
2026-04-22 04:24 49.90568 -97.25087 781 ft 24 kts 270°
2026-04-22 04:25 49.90556 -97.25350 781 ft 25 kts 266°
2026-04-22 04:25 49.90546 -97.25624 781 ft 26 kts 263°
2026-04-22 04:25 49.90520 -97.25878 781 ft 21 kts 275°
2026-04-22 04:25 49.90597 -97.25943 781 ft 8 kts 348°
2026-04-22 04:26 49.90630 -97.25970 781 ft 0 kts 310°